Weather History for KAFN - April, 2013

Change the Weather History Date:

Tuesday, April 2, 2013

  Actual Average Record
Temperature  
Mean Temperature 27 °F -  
Max Temperature 32 °F 44 °F 63 °F (2009)
Min Temperature 24 °F 26 °F 18 °F (2015)
Degree Days  
Heating Degree Days 38    
Moisture  
Dew Point 9 °F    
Average Humidity 45    
Maximum Humidity 55    
Minimum Humidity 38    
Precipitation  
Precipitation 0.00 in - - ()
Sea Level Pressure  
Sea Level Pressure 29.86 in    
Wind  
Wind Speed 10 mph (West)    
Max Wind Speed 22 mph    
Max Gust Speed 33 mph    
Visibility 10 miles    
Events      
Averages and records for this station are not official NWS values.
T = Trace of Precipitation, MM = Missing Value Source: NWS Daily Summary

Daily Weather History Graph

Daily Weather History Graph

Search for Another Location

Airport or City:

Trip Planner

Search our weather history database for the weather conditions in past years. The results will help you decide how hot, cold, wet, or windy it might be!

Date:

Astronomy

Apr. 02, 2013 Rise Set
Actual Time 6:28 AM EDT 7:15 PM EDT
Civil Twilight 5:59 AM EDT 7:44 PM EDT
Nautical Twilight 5:25 AM EDT 8:18 PM EDT
Astronomical Twilight 4:50 AM EDT 8:53 PM EDT
Moon 1:23 AM EDT (4/2) 11:10 AM EDT (4/2)
Length of Visible Light 13h 44m
Length of Day
12h 47m
Waning Gibbous, 56% of the Moon is Illuminated
Apr 2
Waning Gibbous
Apr 3
Last Quarter
Apr 10
New
Apr 18
First Quarter
Apr 25
Full

Hourly Weather History & Observations

Time (EDT) Temp. Windchill Dew Point Humidity Pressure Visibility Wind Dir Wind Speed Gust Speed Precip Events Conditions
12:52 AM 28.0 °F 17.5 °F 10.0 °F 47% 29.80 in 10.0 mi West 12.7 mph 20.7 mph N/A   Clear
1:52 AM 28.0 °F 21.7 °F 8.1 °F 43% 29.81 in 10.0 mi West 5.8 mph 20.7 mph N/A   Clear
2:52 AM 27.0 °F 19.5 °F 9.0 °F 47% 29.82 in 10.0 mi Variable 6.9 mph - N/A   Clear
3:52 AM 26.1 °F 20.5 °F 9.0 °F 49% 29.81 in 10.0 mi Variable 4.6 mph - N/A   Clear
4:52 AM 25.0 °F 19.3 °F 9.0 °F 51% 29.82 in 10.0 mi Variable 4.6 mph - N/A   Clear
5:52 AM 24.1 °F 19.7 °F 9.0 °F 53% 29.83 in 10.0 mi Variable 3.5 mph - N/A   Clear
6:52 AM 24.1 °F 17.0 °F 10.0 °F 55% 29.85 in 10.0 mi Variable 5.8 mph - N/A   Clear
7:52 AM 26.1 °F 16.8 °F 10.0 °F 51% 29.86 in 10.0 mi WSW 9.2 mph 17.3 mph N/A   Clear
8:52 AM 27.0 °F 16.1 °F 9.0 °F 47% 29.87 in 10.0 mi West 12.7 mph 21.9 mph N/A   Clear
9:52 AM 28.9 °F 20.4 °F 8.1 °F 41% 29.86 in 10.0 mi West 9.2 mph 23.0 mph N/A   Mostly Cloudy
10:52 AM 28.0 °F 16.1 °F 9.0 °F 45% 29.88 in 10.0 mi WNW 16.1 mph 28.8 mph N/A   Overcast
11:52 AM 28.9 °F 18.6 °F 14.0 °F 54% 29.87 in 9.0 mi WNW 12.7 mph 20.7 mph 0.00 in   Mostly Cloudy
1:52 PM 30.9 °F 19.8 °F 8.1 °F 38% 29.84 in 10.0 mi West 16.1 mph 28.8 mph N/A   Overcast
2:52 PM 30.9 °F 18.1 °F 8.1 °F 38% 29.84 in 10.0 mi West 21.9 mph 33.4 mph N/A   Overcast
3:52 PM 30.9 °F 21.7 °F 10.0 °F 42% 29.84 in 10.0 mi West 11.5 mph 27.6 mph N/A   Overcast
4:52 PM 30.9 °F 21.7 °F 8.1 °F 38% 29.85 in 10.0 mi WSW 11.5 mph 27.6 mph N/A   Overcast
5:52 PM 30.0 °F 20.0 °F 8.1 °F 40% 29.86 in 10.0 mi WSW 12.7 mph 29.9 mph N/A   Overcast
6:52 PM 30.0 °F 19.1 °F 8.1 °F 40% 29.89 in 10.0 mi West 15.0 mph 27.6 mph N/A   Mostly Cloudy
7:52 PM 30.0 °F 19.5 °F 8.1 °F 40% 29.91 in 10.0 mi West 13.8 mph 24.2 mph N/A   Mostly Cloudy
8:52 PM 28.9 °F 19.2 °F 9.0 °F 43% 29.93 in 10.0 mi West 11.5 mph 25.3 mph N/A   Overcast
9:52 PM 28.9 °F 18.2 °F 10.9 °F 47% 29.93 in 10.0 mi West 13.8 mph 24.2 mph N/A   Scattered Clouds
10:52 PM 28.9 °F 21.1 °F 12.0 °F 49% 29.93 in 10.0 mi West 8.1 mph - N/A   Overcast